| time (UTC) | temp C | wind direction | speed KPH | gust KPH | rain 1hr cm | rain 24hr cm | rain mn cm | humidity % | barometer mb |
| 20260505153122 | 11 | 71 | 14.5 | 19.3 | 0.00 | 0.00 | 0.00 | 90 | 1016.3 |
| 20260505152123 | 11 | 75 | 14.5 | 19.3 | 0.00 | 0.00 | 0.00 | 88 | 1016.3 |
| 20260505151122 | 11 | 80 | 16.1 | 22.5 | 0.00 | 0.00 | 0.00 | 89 | 1016.2 |
| 20260505150202 | 11 | 94 | 12.9 | 20.9 | 0.00 | 0.00 | 0.00 | 87 | 1016.3 |
| 20260505140122 | 12 | 91 | 8.0 | 14.5 | 0.00 | 0.00 | 0.00 | 83 | 1016.3 |
| 20260505130202 | 12 | 89 | 8.0 | 14.5 | 0.00 | 0.00 | 0.00 | 81 | 1016.4 |
| 20260505124121 | 11 | 89 | 11.3 | 16.1 | 0.00 | 0.00 | 0.00 | 83 | 1016.3 |
| 20260505123122 | 11 | 90 | 11.3 | 19.3 | 0.00 | 0.00 | 0.00 | 82 | 1016.3 |
| 20260505122121 | 12 | 87 | 12.9 | 22.5 | 0.00 | 0.00 | 0.00 | 80 | 1016.3 |
| 20260505121122 | 12 | 94 | 11.3 | 20.9 | 0.00 | 0.00 | 0.00 | 78 | 1016.4 |
| 20260505120142 | 12 | 77 | 12.9 | 19.3 | 0.00 | 0.00 | 0.00 | 74 | 1016.4 |
| 20260505115121 | 13 | 64 | 11.3 | 16.1 | 0.00 | 0.00 | 0.00 | 65 | 1016.4 |
| 20260505114121 | 12 | 33 | 11.3 | 17.7 | 0.00 | 0.00 | 0.00 | 62 | 1016.3 |
| 20260505113121 | 12 | 6 | 9.7 | 14.5 | 0.00 | 0.00 | 0.00 | 63 | 1016.5 |
| 20260505112121 | 12 | 15 | 12.9 | 20.9 | 0.00 | 0.00 | 0.00 | 67 | 1016.5 |
| 20260505111125 | 12 | 351 | 14.5 | 17.7 | 0.00 | 0.00 | 0.00 | 66 | 1016.5 |
| 20260505110125 | 12 | 345 | 11.3 | 16.1 | 0.00 | 0.00 | 0.00 | 67 | 1016.6 |
| 20260505102126 | 12 | 34 | 9.7 | 16.1 | 0.00 | 0.00 | 0.00 | 65 | 1016.7 |
| 20260505101125 | 12 | 359 | 11.3 | 16.1 | 0.00 | 0.00 | 0.00 | 67 | 1016.7 |
| 20260505100125 | 12 | 22 | 14.5 | 20.9 | 0.00 | 0.00 | 0.00 | 66 | 1016.7 |
| 20260505095145 | 11 | 17 | 14.5 | 22.5 | 0.00 | 0.00 | 0.00 | 67 | 1016.8 |
| 20260505094145 | 11 | 14 | 14.5 | 22.5 | 0.00 | 0.00 | 0.00 | 69 | 1016.8 |
| 20260505093125 | 11 | 2 | 16.1 | 20.9 | 0.00 | 0.00 | 0.00 | 70 | 1016.8 |
| 20260505092125 | 11 | 6 | 16.1 | 20.9 | 0.00 | 0.00 | 0.00 | 69 | 1016.8 |
| 20260505091125 | 11 | 9 | 19.3 | 24.1 | 0.00 | 0.00 | 0.00 | 64 | 1016.7 |
| 20260505090124 | 11 | 359 | 17.7 | 22.5 | 0.00 | 0.00 | 0.00 | 69 | 1016.6 |
| 20260505085125 | 11 | 350 | 12.9 | 19.3 | 0.00 | 0.00 | 0.00 | 72 | 1016.7 |
| 20260505084125 | 11 | 2 | 14.5 | 22.5 | 0.00 | 0.00 | 0.00 | 69 | 1016.7 |
| 20260505083124 | 11 | 2 | 14.5 | 20.9 | 0.00 | 0.00 | 0.00 | 71 | 1016.8 |
| 20260505082124 | 11 | 1 | 16.1 | 20.9 | 0.00 | 0.00 | 0.00 | 71 | 1016.8 |
| 20260505081305 | 11 | 346 | 16.1 | 24.1 | 0.00 | 0.00 | 0.00 | 70 | 1016.8 |
| 20260505080124 | 11 | 350 | 14.5 | 19.3 | 0.00 | 0.00 | 0.00 | 66 | 1016.8 |
| 20260505075124 | 11 | 359 | 16.1 | 20.9 | 0.00 | 0.00 | 0.00 | 67 | 1016.7 |
| 20260505074144 | 10 | 347 | 14.5 | 17.7 | 0.00 | 0.00 | 0.00 | 76 | 1016.7 |
| 20260505073124 | 11 | 335 | 16.1 | 20.9 | 0.00 | 0.00 | 0.00 | 76 | 1016.7 |
| 20260505072125 | 11 | 351 | 14.5 | 22.5 | 0.00 | 0.00 | 0.00 | 74 | 1016.7 |
| 20260505071124 | 11 | 355 | 16.1 | 25.7 | 0.00 | 0.00 | 0.00 | 68 | 1016.7 |
| 20260505070125 | 11 | 1 | 11.3 | 16.1 | 0.00 | 0.00 | 0.00 | 74 | 1016.7 |
| 20260505065124 | 11 | 356 | 16.1 | 20.9 | 0.00 | 0.00 | 0.00 | 72 | 1016.8 |
| 20260505064144 | 10 | 346 | 11.3 | 17.7 | 0.00 | 0.00 | 0.00 | 86 | 1016.8 |
| 20260505063125 | 9 | 342 | 14.5 | 19.3 | 0.00 | 0.00 | 0.00 | 95 | 1016.8 |
| 20260505062124 | 8 | 344 | 12.9 | 17.7 | 0.00 | 0.00 | 0.00 | 99 | 1016.9 |
| 20260505061125 | 8 | 338 | 12.9 | 17.7 | 0.00 | 0.00 | 0.00 | 100 | 1016.8 |
| 20260505060124 | 8 | 340 | 12.9 | 17.7 | 0.00 | 0.00 | 0.00 | 100 | 1016.9 |
| 20260505055124 | 8 | 324 | 12.9 | 17.7 | 0.00 | 0.00 | 0.00 | 100 | 1016.9 |
| 20260505054144 | 8 | 301 | 12.9 | 16.1 | 0.00 | 0.00 | 0.00 | 100 | 1016.8 |
| 20260505053124 | 8 | 299 | 11.3 | 17.7 | 0.00 | 0.00 | 0.00 | 100 | 1016.8 |
| 20260505052124 | 8 | 307 | 9.7 | 12.9 | 0.00 | 0.00 | 0.00 | 100 | 1016.8 |
| 20260505051124 | 8 | 300 | 11.3 | 16.1 | 0.00 | 0.00 | 0.00 | 100 | 1016.7 |
| 20260505050144 | 8 | 329 | 12.9 | 16.1 | 0.00 | 0.00 | 0.00 | 100 | 1016.7 |
| 20260505041130 | 8 | 302 | 12.9 | 20.9 | 0.00 | 0.00 | 0.00 | 100 | 1016.6 |
| 20260505040110 | 8 | 310 | 9.7 | 11.3 | 0.00 | 0.00 | 0.00 | 100 | 1016.6 |
| 20260505035110 | 8 | 298 | 12.9 | 19.3 | 0.00 | 0.00 | 0.00 | 100 | 1016.6 |
| 20260505034110 | 8 | 306 | 11.3 | 14.5 | 0.00 | 0.00 | 0.00 | 100 | 1016.7 |
| 20260505033130 | 8 | 296 | 12.9 | 22.5 | 0.00 | 0.00 | 0.00 | 100 | 1016.7 |
| 20260505032110 | 8 | 313 | 11.3 | 16.1 | 0.00 | 0.00 | 0.00 | 99 | 1016.7 |
| 20260505031129 | 8 | 311 | 9.7 | 12.9 | 0.00 | 0.00 | 0.00 | 98 | 1016.7 |
| 20260505030110 | 8 | 314 | 9.7 | 16.1 | 0.00 | 0.00 | 0.00 | 98 | 1016.7 |
| 20260505025109 | 8 | 323 | 12.9 | 20.9 | 0.00 | 0.00 | 0.00 | 98 | 1016.7 |
| 20260505024109 | 8 | 343 | 12.9 | 19.3 | 0.00 | 0.00 | 0.00 | 100 | 1016.7 |
| 20260505023134 | 8 | 326 | 11.3 | 16.1 | 0.00 | 0.00 | 0.00 | 100 | 1016.7 |
| 20260505022113 | 8 | 319 | 11.3 | 14.5 | 0.00 | 0.00 | 0.00 | 100 | 1016.7 |
| 20260505021113 | 8 | 327 | 17.7 | 24.1 | 0.00 | 0.00 | 0.00 | 100 | 1016.7 |
| 20260505020133 | 9 | 325 | 12.9 | 19.3 | 0.00 | 0.00 | 0.00 | 100 | 1016.7 |
| 20260505015115 | 9 | 325 | 12.9 | 16.1 | 0.00 | 0.00 | 0.00 | 100 | 1016.8 |
| 20260505014133 | 10 | 336 | 12.9 | 17.7 | 0.00 | 0.00 | 0.00 | 100 | 1016.8 |
| 20260505013113 | 10 | 336 | 12.9 | 16.1 | 0.00 | 0.00 | 0.00 | 100 | 1016.9 |
| 20260505012113 | 10 | 327 | 9.7 | 12.9 | 0.00 | 0.00 | 0.00 | 100 | 1017.0 |
| 20260505011113 | 9 | 312 | 9.7 | 11.3 | 0.00 | 0.00 | 0.00 | 100 | 1017.0 |
| 20260505010113 | 10 | 312 | 11.3 | 12.9 | 0.00 | 0.00 | 0.00 | 100 | 1017.0 |
| 20260505005153 | 10 | 308 | 8.0 | 11.3 | 0.00 | 0.00 | 0.00 | 100 | 1017.0 |
| 20260505004113 | 10 | 307 | 8.0 | 11.3 | 0.00 | 0.00 | 0.00 | 100 | 1017.0 |
| 20260505003133 | 10 | 327 | 8.0 | 9.7 | 0.00 | 0.00 | 0.00 | 100 | 1017.1 |
| 20260505002113 | 10 | 329 | 8.0 | 9.7 | 0.00 | 0.00 | 0.00 | 99 | 1017.1 |
| 20260505001113 | 10 | 317 | 8.0 | 9.7 | 0.00 | 0.00 | 0.00 | 97 | 1017.2 |
| 20260505000113 | 10 | 317 | 8.0 | 9.7 | 0.00 | 0.00 | 0.00 | 96 | 1017.2 |
| 20260504235113 | 11 | 335 | 8.0 | 9.7 | 0.00 | 0.00 | 0.00 | 95 | 1017.2 |
| 20260504234113 | 11 | 351 | 8.0 | 11.3 | 0.00 | 0.00 | 0.00 | 95 | 1017.2 |
| 20260504233133 | 10 | 344 | 6.4 | 9.7 | 0.00 | 0.00 | 0.00 | 96 | 1017.2 |
| 20260504232113 | 11 | 347 | 6.4 | 8.0 | 0.00 | 0.00 | 0.00 | 96 | 1017.2 |
| 20260504231113 | 10 | 356 | 6.4 | 8.0 | 0.00 | 0.00 | 0.00 | 96 | 1017.1 |
| 20260504230132 | 10 | 10 | 6.4 | 9.7 | 0.00 | 0.00 | 0.00 | 97 | 1017.2 |
| 20260504225132 | 11 | 357 | 6.4 | 9.7 | 0.00 | 0.00 | 0.00 | 97 | 1017.2 |
| 20260504224112 | 11 | 1 | 6.4 | 8.0 | 0.00 | 0.00 | 0.00 | 97 | 1017.3 |
| 20260504223113 | 11 | 351 | 6.4 | 9.7 | 0.00 | 0.00 | 0.00 | 95 | 1017.3 |
| 20260504222112 | 11 | 357 | 4.8 | 8.0 | 0.00 | 0.00 | 0.00 | 95 | 1017.3 |
| 20260504221112 | 10 | 3 | 6.4 | 8.0 | 0.00 | 0.00 | 0.00 | 95 | 1017.4 |
| 20260504220112 | 10 | 25 | 4.8 | 6.4 | 0.00 | 0.00 | 0.00 | 95 | 1017.5 |
| 20260504215112 | 10 | 27 | 4.8 | 6.4 | 0.00 | 0.00 | 0.00 | 95 | 1017.5 |
| 20260504214132 | 10 | 25 | 4.8 | 8.0 | 0.00 | 0.00 | 0.00 | 94 | 1017.5 |
| 20260504213132 | 10 | 28 | 4.8 | 8.0 | 0.00 | 0.00 | 0.00 | 94 | 1017.4 |
| 20260504212112 | 10 | 37 | 4.8 | 6.4 | 0.00 | 0.00 | 0.00 | 93 | 1017.4 |
| 20260504211112 | 10 | 42 | 4.8 | 8.0 | 0.00 | 0.00 | 0.00 | 93 | 1017.4 |
| 20260504210112 | 10 | 44 | 4.8 | 8.0 | 0.00 | 0.00 | 0.00 | 91 | 1017.4 |
| 20260504205112 | 11 | 40 | 4.8 | 8.0 | 0.00 | 0.00 | 0.00 | 90 | 1017.3 |
| 20260504204112 | 11 | 27 | 6.4 | 9.7 | 0.00 | 0.00 | 0.00 | 90 | 1017.3 |
| 20260504203112 | 11 | 30 | 6.4 | 9.7 | 0.00 | 0.00 | 0.00 | 90 | 1017.2 |
| 20260504202111 | 11 | 43 | 6.4 | 11.3 | 0.00 | 0.00 | 0.00 | 90 | 1017.1 |
| 20260504201111 | 11 | 30 | 4.8 | 8.0 | 0.00 | 0.00 | 0.00 | 88 | 1017.1 |
| 20260504200152 | 11 | 43 | 6.4 | 8.0 | 0.00 | 0.00 | 0.00 | 87 | 1017.0 |
| 20260504195112 | 11 | 31 | 6.4 | 9.7 | 0.00 | 0.00 | 0.00 | 87 | 1017.0 |
| 20260504194111 | 11 | 38 | 8.0 | 9.7 | 0.00 | 0.00 | 0.00 | 87 | 1016.9 |
| 20260504193111 | 11 | 17 | 8.0 | 11.3 | 0.00 | 0.00 | 0.00 | 88 | 1016.9 |
| 20260504192112 | 11 | 44 | 6.4 | 8.0 | 0.00 | 0.00 | 0.00 | 87 | 1016.8 |
| 20260504191111 | 11 | 28 | 6.4 | 9.7 | 0.00 | 0.00 | 0.00 | 86 | 1016.8 |
| 20260504190112 | 11 | 27 | 6.4 | 9.7 | 0.00 | 0.00 | 0.00 | 86 | 1016.8 |
| 20260504185111 | 11 | 20 | 8.0 | 9.7 | 0.00 | 0.00 | 0.00 | 86 | 1016.7 |
| 20260504184112 | 11 | 37 | 6.4 | 8.0 | 0.00 | 0.00 | 0.00 | 87 | 1016.6 |
| 20260504183111 | 11 | 36 | 6.4 | 9.7 | 0.00 | 0.00 | 0.00 | 93 | 1016.6 |
| 20260504182131 | 11 | 66 | 8.0 | 11.3 | 0.00 | 0.00 | 0.00 | 98 | 1016.6 |
| 20260504181131 | 11 | 78 | 9.7 | 14.5 | 0.00 | 0.00 | 0.00 | 98 | 1016.6 |
| 20260504180131 | 11 | 76 | 11.3 | 16.1 | 0.00 | 0.00 | 0.00 | 98 | 1016.5 |
| 20260504175111 | 11 | 76 | 11.3 | 16.1 | 0.00 | 0.00 | 0.00 | 97 | 1016.6 |
| 20260504174111 | 11 | 71 | 12.9 | 17.7 | 0.00 | 0.00 | 0.00 | 97 | 1016.5 |
| 20260504173111 | 11 | 70 | 11.3 | 14.5 | 0.00 | 0.00 | 0.00 | 97 | 1016.6 |
| 20260504172111 | 12 | 63 | 12.9 | 20.9 | 0.00 | 0.00 | 0.00 | 96 | 1016.5 |
| 20260504171111 | 12 | 72 | 12.9 | 16.1 | 0.00 | 0.00 | 0.00 | 100 | 1016.6 |
| 20260504170112 | 11 | 73 | 12.9 | 17.7 | 0.00 | 0.00 | 0.00 | 100 | 1016.6 |
| 20260504160110 | 12 | 72 | 12.9 | 19.3 | 0.00 | 0.00 | 0.00 | 97 | 1016.5 |